Regional Weather Roundup
Issued by NWS Charleston, WV

Home | Current Version | Previous Version | Text Only | Print | Product List | Glossary Off
Versions: 1 2 3 4 5 6 7 8 9 10 11 12 13 14 15 16 17 18 19 20 21 22 23 24 25 26 27

000
ASUS41 KRLX 230310
RWRRLX
West Virginia Regional Weather Roundup
National Weather Service Charleston WV
1000 PM EST MON JAN 22 2018

Note: "fair" indicates few or no clouds below 12,000 feet with no
significant weather and/or obstructions to visibility.

WVZ003-230400-
Northern Panhandle of West Virginia

CITY           SKY/WX    TMP DP  RH WIND       PRES   REMARKS
WHEELING       MOCLDY    56  44  64 S15G21    29.69F
$$

WVZ009-230400-
Northwest West Virginia

CITY           SKY/WX    TMP DP  RH WIND       PRES   REMARKS
PARKERSBURG    CLOUDY    58  44  60 S7G17     29.72F
$$

WVZ006-230400-
Western West Virginia

CITY           SKY/WX    TMP DP  RH WIND       PRES   REMARKS
HUNTINGTON       N/A     61  45  55 S9G18     29.66F
$$

WVZ015-230400-
West Central West Virginia

CITY           SKY/WX    TMP DP  RH WIND       PRES   REMARKS
CHARLESTON       N/A     58  45  62 S8        29.71F
$$

WVZ022-031-230400-
North Central West Virginia

CITY           SKY/WX    TMP DP  RH WIND       PRES   REMARKS
CLARKSBURG     CLOUDY    58  43  57 SE12      29.76F
MORGANTOWN     LGT RAIN  59  41  51 S12       29.77F
$$

WVZ025-035-042-045-230400-
Southern West Virginia

CITY           SKY/WX    TMP DP  RH WIND       PRES   REMARKS
BECKLEY          N/A     52  43  71 S17G29    29.82F
LOGAN            N/A     59  46  63 S16G24    29.74F
BLUEFIELD      CLOUDY    51  43  74 S8G21     29.88F
LEWISBURG      CLOUDY    53  45  73 S9G16     29.90F
$$

WVZ047-230400-
Northern Mountains of West Virginia

CITY           SKY/WX    TMP DP  RH WIND       PRES   REMARKS
ELKINS         CLOUDY    54  41  61 S12G20    29.82F
$$

WVZ052-230400-
Eastern Panhandle of West Virginia

CITY           SKY/WX    TMP DP  RH WIND       PRES   REMARKS
MARTINSBURG      N/A     56  42  59 S10       29.90F
PETERSBURG     CLOUDY    56  38  50 CALM      29.87F
$$




USA.gov is the U.S. government's official web portal to all federal, state and local government web resources and services.